Theta_e
346 351 354 353 355 357 363 363 355 355 357 352 353 355 352 344 357 352 344 348 344 345 348 347 349 353 351 349 352 353 351 352 349 351 353 353 351 352 351 345 352 351 352 354 353 352 352 351 351
352 358 345 348 356 362 363 358 357 355 353 351 349 346 340 340 340 347 347 347 341 345 345 345 348 352 349 349 353 354 354 353 353 352 352 352 351 352 351 344 351 352 352 352 352 353 351 349 348
355 346 347 355 360 364 361 356 353 354 354 355 355 346 337 347 345 346 348 346 343 343 347 347 346 349 353 353 353 353 353 352 353 353 352 352 352 348 347 347 352 350 352 352 351 350 352 351 349
355 347 348 357 359 357 358 354 352 354 353 351 345 337 332 341 344 345 348 345 341 345 346 345 348 353 353 353 352 353 352 353 351 353 353 351 351 353 353 350 353 353 353 353 353 349 348 351 351
347 351 358 364 362 357 351 349 349 353 354 350 338 337 333 341 345 346 345 342 337 346 345 345 351 353 353 352 353 352 353 352 352 352 353 352 350 353 353 352 353 353 353 348 352 352 349 350 347
347 350 358 363 362 355 351 349 349 354 353 350 341 339 335 343 345 346 343 339 337 342 345 347 351 353 353 353 352 351 353 348 352 353 354 353 352 354 354 351 353 354 351 351 352 351 351 349 346
353 355 357 359 358 354 353 349 352 353 353 352 341 337 334 341 343 344 344 344 346 343 345 345 352 353 353 353 352 351 353 352 351 353 354 353 351 353 353 352 353 353 352 353 351 348 348 347 347
354 357 364 359 355 354 351 352 349 352 353 346 341 343 337 337 342 344 348 348 348 342 340 348 350 351 352 352 353 353 347 353 352 353 354 352 351 349 352 350 351 353 352 349 344 346 346 345 346
352 359 363 361 352 354 352 353 350 346 350 349 347 343 335 338 350 352 351 350 348 344 339 349 348 347 348 351 354 353 348 353 354 353 349 350 348 346 349 344 345 353 350 347 346 345 342 342 345
354 360 360 352 350 350 353 352 349 349 349 348 349 340 336 341 353 353 352 352 351 349 347 349 348 347 346 349 354 347 346 352 353 348 346 347 346 345 346 349 351 352 347 345 345 341 342 349 342
352 351 349 353 350 348 353 352 347 349 348 345 349 341 337 336 353 352 352 352 351 345 350 347 346 347 344 346 349 345 336 343 343 343 344 343 351 352 352 351 344 343 342 341 344 345 345 346 345
355 351 351 352 348 350 354 350 349 346 345 345 345 339 339 339 340 345 350 349 349 350 350 348 349 348 347 348 346 343 333 342 341 345 348 350 350 351 351 351 351 345 346 348 349 350 350 350 350
351 351 349 348 347 348 350 350 349 346 346 346 344 342 342 340 338 343 346 347 347 349 351 350 352 349 350 351 345 343 334 345 341 346 347 346 350 350 351 352 351 351 349 351 350 351 350 351 351
349 349 348 346 344 345 351 351 350 349 346 347 346 344 342 341 342 344 343 345 348 350 350 352 352 349 352 352 347 348 344 348 350 350 349 349 350 351 351 352 352 351 351 351 351 350 351 350 350
347 350 347 346 345 346 347 351 351 348 347 348 347 345 345 343 343 343 343 347 349 350 350 352 352 350 353 352 349 349 350 350 347 349 348 350 351 351 353 353 353 353 351 352 353 352 353 352 351
346 346 350 348 347 346 344 352 349 345 348 349 348 346 346 344 343 343 343 347 348 349 351 351 351 349 352 351 348 351 352 351 350 350 347 348 352 352 350 353 352 352 352 352 354 354 352 351 351
351 354 351 349 347 348 348 351 349 344 345 348 347 346 345 344 342 343 343 346 347 348 351 351 350 351 351 349 348 347 351 352 350 350 348 350 351 352 351 349 350 352 351 352 353 353 353 353 352
353 352 349 349 347 351 352 354 347 345 347 347 346 345 345 344 343 343 345 346 348 348 350 350 350 350 350 349 347 348 350 351 350 349 349 350 349 352 352 350 352 351 350 351 354 354 352 355 355
346 348 351 349 347 348 352 351 346 343 347 347 345 345 345 344 343 345 346 346 347 349 350 349 349 348 348 347 346 348 349 350 352 351 352 350 348 348 350 352 353 353 351 354 355 355 356 354 357
346 349 349 343 342 348 352 351 347 344 348 348 347 346 346 345 345 344 345 346 346 346 349 350 350 350 348 343 343 346 348 352 353 352 352 352 352 352 354 355 352 353 354 355 355 355 355 354 356
346 349 345 342 339 349 353 351 353 347 347 346 348 346 346 346 346 344 345 347 347 347 348 350 351 351 349 346 345 344 346 351 352 352 353 352 353 353 355 354 355 356 356 354 355 353 357 357 355
343 340 341 340 333 337 341 349 349 347 347 346 345 345 347 347 346 345 345 346 348 348 347 348 350 351 349 347 346 346 349 350 352 351 350 351 353 353 355 355 356 356 354 353 357 355 356 358 358
344 339 339 340 334 331 338 345 345 344 346 345 345 344 346 347 347 346 345 346 348 349 348 347 348 349 348 347 347 347 350 355 353 352 352 351 353 353 356 357 356 355 350 352 354 358 358 357 358
339 335 329 329 327 335 341 341 343 341 339 344 342 342 345 347 346 347 346 347 348 349 349 347 348 347 348 347 348 348 349 352 354 354 354 352 352 354 356 354 356 357 354 353 350 358 359 361 360
324 325 327 329 330 334 336 342 337 339 340 338 339 341 342 341 346 348 347 347 349 349 348 347 347 350 348 350 351 351 353 352 353 351 352 356 355 354 355 352 354 359 357 355 355 356 359 361 363
322 323 326 332 332 329 335 338 335 337 337 338 338 339 344 342 343 347 348 347 348 351 350 349 347 348 351 349 349 351 355 355 352 353 354 358 355 354 353 352 353 355 358 356 355 357 359 361 361
323 323 323 326 326 327 328 334 333 337 338 341 340 342 346 346 342 347 348 347 347 352 352 351 349 349 349 349 349 348 350 355 353 353 352 354 355 353 351 351 352 354 354 357 356 356 356 360 359
323 322 322 323 329 330 327 329 331 339 339 338 345 346 346 348 341 347 348 347 348 350 353 352 351 350 351 350 349 347 348 353 356 356 352 352 353 355 353 353 352 352 352 356 357 360 358 361 360
320 318 318 318 320 324 324 325 332 336 337 340 344 344 348 349 348 346 346 347 347 350 351 354 353 352 353 352 352 352 349 350 354 358 358 356 353 353 355 354 355 357 354 353 358 360 359 362 360
320 319 315 318 320 317 319 323 324 335 337 339 348 344 339 341 346 344 342 346 347 349 351 353 355 354 355 355 356 355 355 353 351 352 357 360 358 352 353 352 353 357 357 353 358 358 361 362 361
Wind_Speed
4 3 5 1 4 4 1 4 3 5 2 4 8 4 8 7 2 3 25 19 35 33 28 23 20 18 16 16 15 16 16 12 12 11 11 12 12 11 11 12 12 12 11 11 11 11 11 11 11
2 3 3 1 4 2 4 4 7 6 7 12 11 5 6 4 4 15 15 30 37 33 28 24 20 18 17 17 15 15 15 13 11 11 11 11 12 11 11 12 12 11 11 10 9 10 11 11 10
7 7 4 3 2 3 3 3 7 16 16 10 6 4 4 6 13 16 22 35 36 32 27 23 21 19 17 16 15 14 14 13 12 11 11 12 12 11 12 13 10 10 10 9 10 9 10 10 9
3 5 3 4 3 9 11 4 5 11 15 11 12 6 5 9 10 18 35 37 34 31 27 23 21 18 18 17 15 14 14 13 12 12 13 11 12 12 12 11 10 10 9 9 9 9 9 9 8
6 3 3 3 6 7 5 4 7 11 7 11 8 5 11 5 30 40 35 36 34 30 26 23 21 19 17 17 15 14 13 13 13 13 12 12 12 11 12 11 10 9 8 8 8 8 8 8 7
4 3 2 3 7 10 5 12 14 11 13 12 12 8 2 30 39 34 37 35 32 32 27 23 20 18 17 16 15 15 14 14 14 12 13 12 11 11 10 9 8 7 7 8 7 7 8 7 6
4 1 4 5 4 5 4 9 4 14 13 8 12 6 6 18 33 35 35 35 33 32 29 26 22 19 17 16 15 15 14 14 14 13 11 11 11 10 11 8 8 6 6 6 6 5 6 6 6
4 3 3 4 4 6 1 10 6 10 5 15 10 7 15 17 33 31 35 36 34 31 28 27 24 21 19 17 15 15 14 14 13 13 12 11 10 10 9 9 7 6 5 3 3 4 5 6 8
3 3 3 2 6 7 6 5 4 3 11 12 2 9 21 30 38 33 28 25 26 27 28 27 25 22 20 19 16 15 15 14 12 12 11 12 10 9 8 7 6 5 4 4 3 3 6 8 9
3 3 5 3 7 14 12 11 8 6 4 3 4 15 24 29 34 30 26 24 23 27 30 28 26 24 22 19 19 17 17 15 14 13 12 12 10 9 7 5 4 4 5 3 3 4 4 8 10
4 5 8 23 18 16 16 4 3 5 4 6 21 21 18 21 30 29 29 34 33 36 31 28 27 26 23 21 21 18 17 16 14 12 11 11 10 8 7 5 3 5 3 3 5 7 6 9 12
2 14 16 13 12 18 12 12 6 7 4 9 24 24 20 16 20 26 27 27 27 28 32 29 27 27 23 20 21 20 19 17 16 15 12 10 9 8 8 9 6 6 5 6 6 8 7 9 10
4 5 10 18 18 6 15 11 8 11 6 17 22 21 18 16 15 26 36 32 34 30 32 31 28 26 25 22 21 21 21 20 19 16 14 12 9 9 7 10 11 11 10 6 7 10 10 10 7
5 15 18 11 10 4 11 8 8 7 15 15 19 17 16 14 11 21 27 31 34 33 35 34 30 28 27 24 23 21 20 19 16 14 13 12 9 9 11 8 9 7 10 9 7 10 9 7 4
8 8 10 5 3 3 4 6 1 14 15 16 14 14 14 8 15 18 24 31 35 34 35 35 34 32 29 26 24 20 20 20 18 16 15 13 11 11 9 8 4 3 4 7 9 10 10 8 2
8 3 7 6 8 4 9 4 6 7 14 15 14 14 13 10 12 23 24 32 31 33 34 36 35 32 30 29 25 21 16 24 22 20 19 17 14 12 9 4 2 4 5 7 9 8 7 9 7
6 3 12 10 6 4 11 5 9 9 5 16 16 16 14 12 12 21 26 34 32 36 37 37 34 31 34 29 24 19 7 17 25 24 21 20 16 11 10 6 3 5 4 6 8 7 8 7 5
3 6 11 11 7 8 9 10 13 14 15 16 18 16 16 15 15 21 26 29 33 38 41 41 38 34 30 26 22 18 13 3 21 25 22 21 14 11 7 5 4 3 3 4 7 6 6 8 6
7 16 18 19 26 10 11 10 10 8 3 16 16 17 17 17 16 23 25 33 32 36 37 38 37 32 27 23 23 19 14 3 18 21 23 20 13 12 9 7 6 6 6 5 6 5 7 8 4
15 18 21 16 11 6 9 10 11 6 8 14 20 18 19 16 15 17 24 30 33 34 36 39 35 33 29 25 24 22 18 10 20 20 23 20 16 16 13 12 7 7 10 10 9 6 4 2 4
11 17 21 8 13 7 10 4 10 7 9 8 9 16 16 19 19 18 18 25 32 33 35 39 38 36 33 27 24 18 19 12 18 20 21 22 17 16 14 14 13 9 9 8 8 8 6 3 1
11 17 15 12 4 5 6 5 6 7 13 10 15 13 18 19 19 20 17 23 30 34 41 40 39 39 37 32 29 25 22 18 21 24 22 25 22 18 17 16 14 13 11 8 7 9 9 7 3
14 15 10 14 8 4 5 5 6 12 15 17 19 14 24 23 22 23 22 29 34 35 37 41 39 38 39 36 32 28 26 17 19 21 23 22 26 23 21 20 17 14 13 14 11 10 8 10 6
18 9 6 3 3 3 7 3 6 6 10 7 14 14 18 19 19 22 31 29 30 35 37 39 41 39 40 39 35 30 30 27 21 13 19 26 27 26 25 23 20 19 17 16 15 10 12 9 8
5 3 4 4 4 5 6 1 9 8 11 9 11 15 11 9 20 19 21 20 27 33 36 36 38 36 40 41 37 33 30 28 23 22 16 22 26 30 28 24 22 23 22 17 16 14 13 10 9
7 6 5 7 5 7 3 5 6 3 8 11 4 9 5 10 16 20 23 26 30 35 37 37 37 34 38 42 42 39 33 28 26 24 19 13 27 28 27 26 24 21 25 21 18 17 14 12 10
8 9 5 4 2 3 3 7 8 6 8 5 8 7 13 19 19 25 24 30 31 34 37 39 38 37 38 42 41 42 41 33 29 29 26 20 14 23 22 22 27 28 27 25 21 19 17 14 13
4 5 8 5 2 3 5 3 5 1 6 5 2 8 12 16 7 20 22 28 33 37 40 40 39 41 44 42 39 40 44 40 34 30 30 27 24 21 23 22 27 32 31 29 25 22 18 16 14
10 6 5 2 3 1 3 6 7 9 6 10 9 13 9 7 8 7 11 30 37 34 36 38 37 36 33 35 36 34 36 41 41 35 30 30 28 26 23 23 23 26 34 31 28 25 21 19 17
4 5 5 4 7 2 5 5 8 10 8 16 10 7 14 12 3 7 14 23 30 31 36 38 38 36 37 40 36 37 36 38 41 42 38 31 30 30 29 27 25 22 26 33 30 28 25 23 18
Wind_Direction
278 294 324 29 55 63 301 288 216 154 57 41 95 140 118 36 141 180 146 158 156 156 158 157 152 149 146 138 135 136 133 135 130 124 125 123 123 125 122 119 121 124 124 124 124 121 120 122 129
215 288 68 66 75 69 276 234 148 184 133 101 69 52 50 102 61 116 121 158 157 155 155 154 151 149 144 141 143 140 137 140 138 132 132 132 133 130 133 127 124 129 129 130 127 129 129 131 136
80 51 61 66 81 244 220 220 157 134 147 126 119 93 76 105 105 135 150 155 156 153 153 151 151 149 144 144 144 142 137 136 140 140 138 130 130 132 126 126 126 133 128 135 131 132 132 137 137
324 36 60 69 289 263 256 219 170 154 113 97 122 75 62 137 123 145 150 156 154 153 153 153 152 149 148 148 145 140 138 138 141 147 139 133 134 132 129 132 132 134 138 131 127 130 138 135 134
30 48 61 92 288 281 242 76 348 105 87 115 119 99 126 105 140 145 152 154 152 156 156 156 154 151 150 147 143 142 139 140 143 146 142 134 143 138 133 136 139 141 139 133 137 139 140 145 156
38 54 29 228 216 235 144 137 233 113 126 111 100 105 125 143 140 151 151 153 156 160 161 157 156 155 152 150 148 147 149 147 149 147 147 143 144 144 140 142 143 148 145 144 147 148 158 160 167
88 96 219 276 267 263 114 82 355 118 123 126 125 112 135 151 148 153 150 159 161 165 163 162 160 158 155 153 151 149 154 153 155 153 148 145 148 148 149 146 153 155 156 157 162 162 172 180 193
127 136 235 211 352 306 173 127 152 115 111 104 131 156 167 163 153 152 155 160 165 167 167 165 163 162 160 156 157 155 162 161 160 157 156 151 155 158 162 158 159 164 168 168 189 200 209 214 217
58 7 268 240 53 294 207 135 167 84 134 150 222 157 161 140 142 141 142 143 154 166 172 170 167 165 165 163 162 164 164 166 165 162 161 157 168 164 165 169 168 179 178 187 197 236 249 246 245
133 241 282 11 204 206 218 169 153 143 159 222 121 138 162 135 145 148 151 155 164 172 177 176 172 169 167 168 172 173 170 168 174 174 168 170 172 175 175 179 199 201 229 223 243 245 256 266 270
172 243 259 281 244 212 193 161 112 123 204 199 153 157 169 155 158 156 164 165 174 178 177 180 177 172 170 173 179 177 177 176 176 174 176 184 189 191 202 219 129 208 229 241 273 271 271 276 279
202 233 241 280 312 176 179 139 159 179 234 168 157 162 169 176 165 166 172 169 173 179 179 177 178 174 175 179 183 180 176 178 177 171 171 182 197 211 228 239 232 249 240 239 265 306 290 275 292
220 281 296 301 296 200 143 179 171 202 149 143 154 163 174 182 177 163 174 172 178 178 181 179 180 178 180 184 186 182 180 182 182 192 192 201 213 228 237 245 242 251 252 286 295 297 311 279 306
293 305 288 285 276 172 175 174 161 186 149 141 161 172 178 186 180 169 170 170 177 176 180 180 182 182 182 190 188 183 185 187 193 198 199 206 225 244 248 241 232 219 231 248 274 285 280 314 344
266 308 313 358 285 20 98 73 81 143 155 153 168 179 184 193 181 182 174 171 175 179 178 183 183 185 185 189 194 195 202 204 203 202 190 200 213 189 174 171 169 197 243 295 305 308 306 326 310
335 84 352 328 22 38 25 44 334 62 161 173 166 180 188 207 204 200 186 173 176 175 181 183 185 186 191 190 195 201 217 219 219 215 202 194 190 190 194 189 227 267 288 303 309 316 346 30 16
9 351 320 331 5 72 61 284 146 131 147 169 178 180 188 211 220 215 193 181 174 175 179 180 179 182 189 187 191 199 198 213 224 216 201 196 206 203 221 224 260 336 264 303 308 302 339 351 324
285 292 284 275 264 77 137 234 177 168 157 194 181 187 190 200 218 213 190 178 177 176 180 180 183 183 183 188 193 200 205 190 211 198 202 202 208 201 207 193 223 271 276 286 284 306 317 327 314
309 277 264 268 272 230 166 210 205 197 179 177 198 191 195 200 198 198 182 173 173 176 175 183 185 189 187 190 189 203 207 210 197 203 203 199 194 197 196 204 224 258 254 278 267 305 314 347 339
245 265 284 280 293 171 162 211 219 225 225 191 190 200 198 195 190 182 170 170 175 176 180 185 188 187 186 185 192 202 202 187 185 188 198 195 197 200 207 218 225 239 245 258 253 283 300 350 8
241 224 255 248 311 94 119 331 258 227 226 230 202 205 204 190 185 184 175 168 178 180 180 187 192 189 188 185 186 195 203 208 197 191 197 198 202 209 212 221 221 233 234 241 250 252 255 274 299
263 210 248 302 351 161 193 226 285 247 231 241 217 203 206 198 187 185 183 170 174 182 187 190 191 192 192 190 190 196 198 208 218 208 205 206 207 212 213 214 219 229 238 238 264 239 265 257 294
254 288 280 286 271 64 326 99 242 217 234 221 220 225 202 194 185 187 189 184 177 177 183 188 188 191 194 193 194 198 202 204 227 226 220 218 216 219 220 215 220 226 229 234 245 248 241 237 268
258 282 298 11 88 47 240 137 281 205 227 196 190 204 186 196 195 191 191 186 178 178 181 186 190 194 194 195 197 204 208 217 223 219 221 222 226 217 218 224 224 227 231 236 233 242 238 247 256
209 102 300 332 1 222 197 190 237 269 239 232 189 184 179 177 197 189 187 186 179 179 185 186 189 190 192 194 196 204 211 216 217 220 219 218 216 217 219 219 223 228 232 237 234 235 239 243 247
289 169 163 213 205 241 68 239 260 219 250 231 339 91 88 211 186 194 190 187 183 184 186 188 190 191 194 197 202 206 210 215 218 224 214 227 225 218 220 221 225 234 233 239 236 234 243 244 253
320 354 231 164 82 97 232 292 324 19 31 66 112 110 22 341 193 188 188 189 188 186 189 190 191 194 195 200 204 209 212 215 218 223 229 233 233 219 223 229 230 233 236 237 237 235 237 242 251
87 287 357 358 334 283 282 289 235 294 172 167 97 71 49 2 198 180 185 189 190 191 191 192 192 191 198 200 204 208 210 214 216 223 229 230 233 228 231 233 238 237 237 235 236 236 240 237 247
348 6 10 145 84 323 305 275 227 210 233 108 87 82 63 31 19 29 214 193 193 190 191 193 193 194 194 197 201 205 209 213 217 219 225 228 230 231 233 235 246 248 238 233 233 235 234 235 243
218 111 92 84 308 258 166 280 1 289 229 117 122 119 107 10 78 350 314 225 193 187 193 191 192 192 194 198 198 203 208 211 215 220 223 224 228 232 239 242 245 249 237 228 231 233 233 235 239